SCP
-0 -0 -0 0 0 0 -0 -0 -0 -0 -0 -0 -0 -0 -0 -0 0 0 -0 -0 -0 -0 0 0 0 0 0 -0 -0 -0 -0 -0 -0 -0 -0 -0 -0 -0 -0 -0 -0 -0 -0 -0 -0 -0 -0 -0 -0
-0 -0 0 -0 0 0 0 -0 -0 -0 -0 -0 -0 -0 -0 -0 -0 -0 -0 -0 -0 -0 0 0 0 0 0 0 0 -0 -0 -0 -0 -0 -0 -0 -0 0 0 0 -0 -0 -0 0 -0 0 -0 -0 -0
-0 -0 -0 -0 0 -0 -0 0 -0 -0 -0 -0 0 -0 0 0 -0 0 -0 0 -0 -0 0 0 0 0 0 0 -0 -0 -0 -0 -0 -0 -0 -0 -0 -0 -0 0 -0 -0 -0 0 0 0 -0 -0 -0
-0 -0 -0 -0 0 0 -0 -0 0 -0 -0 0 -0 -0 -0 -0 0 0 -0 -0 -0 0 0 0 0 0 1 0 0 0 0 -0 -0 -0 -0 -0 0 -0 0 0 0 -0 -0 -0 0 -0 0 0 0
-0 -0 -0 -0 -0 0 -0 0 -0 -0 0 -0 0 -0 -0 -0 -0 -0 -0 -0 -0 -0 0 0 0 0 0 0 0 0 0 -0 -0 -0 -0 0 0 0 0 0 0 -0 0 0 -0 0 0 -0 -0
0 -0 0 -0 0 0 -0 0 0 0 0 -0 -0 -0 -0 -0 -0 -0 -0 -0 -0 -0 -0 -0 0 0 0 0 0 0 0 0 -0 -0 0 0 -0 0 0 0 0 0 0 0 0 0 0 0 0
-0 -0 0 -0 -0 -0 0 0 0 -0 -0 -0 0 -0 -0 -0 -0 0 0 -0 -0 -0 -0 -0 0 0 0 0 0 0 0 0 0 0 -0 0 0 0 0 0 0 0 0 0 -0 -0 -0 0 0
-0 -0 0 -0 0 0 -0 -0 0 -0 0 0 0 0 -0 -0 -0 0 -0 -0 0 -0 -0 -0 -0 0 0 0 0 0 0 0 0 0 0 -0 -0 -0 0 0 0 0 0 0 -0 -0 -0 -0 0
0 0 0 -0 -0 0 0 0 0 0 0 0 0 -0 -0 -0 -0 -0 -0 -0 -0 0 -0 -0 -0 0 0 0 0 0 0 0 0 0 0 -0 0 -0 0 0 0 -0 0 -0 -0 -0 -0 0 0
-0 0 -0 -0 -0 0 0 -0 0 0 -0 0 0 -0 -0 -0 -0 -0 -0 -0 0 0 0 0 -0 -0 0 0 0 0 0 0 0 0 0 0 0 0 0 0 0 -0 -0 -0 -0 -0 -0 0 0
-0 -0 0 0 0 0 0 -0 0 0 0 0 -0 -0 -0 -0 -0 -0 -0 -0 -0 -0 0 0 0 -0 0 0 -0 0 0 0 0 0 0 0 0 0 0 0 0 0 -0 0 -0 0 0 0 -0
-0 0 -0 0 0 0 0 0 0 0 0 0 0 -0 -0 -0 -0 -0 -0 -0 -0 -0 -0 -0 -0 -0 -0 -0 -0 -0 0 -0 -0 0 -0 -0 0 0 0 0 0 0 0 -0 -0 0 -0 -0 0
-0 -0 -0 -0 -0 0 0 0 0 0 0 0 0 -0 -0 -0 -0 -0 -0 -0 -0 -0 -0 -0 -0 -0 -0 -0 -0 0 -0 -0 0 0 0 0 0 0 0 0 0 0 0 -0 0 -0 0 0 0
-0 0 -0 0 0 -0 0 0 -0 0 0 0 0 -0 -0 -0 -0 -0 -0 -0 -0 -0 -0 -0 -0 -0 -0 0 0 0 -0 -0 0 0 0 -0 0 0 0 0 0 -0 0 0 0 0 -0 0 -0
0 0 0 0 0 -0 0 0 0 0 -0 0 -0 -0 -0 -0 -0 -0 -0 -0 -0 -0 -0 0 -0 -0 -0 0 0 -0 0 0 0 0 0 0 0 0 1 0 0 0 0 0 -0 -0 0 0 -0
-0 -0 0 0 0 0 0 0 0 0 0 0 -0 -0 -0 -0 -0 -0 -0 -0 -0 -0 -0 -0 -0 -0 -0 -0 -0 -0 -0 0 0 0 0 0 0 0 0 0 0 0 0 0 0 0 -0 0 -0
0 -0 -0 0 0 0 0 -0 0 -0 0 0 -0 -0 -0 -0 -0 -0 -0 -0 -0 -0 -0 -0 0 0 0 0 0 0 0 0 0 -0 0 0 0 0 0 0 0 0 0 -0 0 -0 -0 0 -0
-0 -0 0 0 0 0 0 0 0 0 0 0 -0 -0 -0 -0 -0 -0 -0 -0 -0 -0 -0 0 -0 -0 0 0 0 1 0 0 0 -0 0 0 0 0 0 0 0 0 0 0 -0 0 0 0 0
-0 0 0 0 0 0 0 0 0 -0 -0 -0 0 -0 -0 -0 -0 -0 -0 -0 -0 -0 -0 -0 -0 -0 -0 0 0 0 0 0 0 0 0 0 0 0 0 0 0 -0 0 -0 -0 0 0 0 0
-0 -0 0 0 0 0 -0 0 0 -0 -0 -0 -0 -0 -0 -0 -0 -0 -0 -0 -0 -0 -0 -0 -0 -0 0 0 0 0 -0 0 0 0 0 0 0 0 0 0 0 0 0 0 0 0 -0 0 -0
-0 0 0 -0 0 0 0 -0 -0 -0 -0 -0 -0 -0 -0 -0 -0 -0 -0 -0 -0 -0 -0 -0 -0 -0 0 0 -0 0 0 0 0 0 0 0 0 0 0 0 0 0 -0 -0 -0 0 -0 -0 -0
-0 0 -0 -0 -0 -0 0 0 0 0 -0 -0 -0 -0 0 -0 -0 -0 -0 -0 -0 -0 -0 -0 -0 -0 0 -0 -0 -0 -0 -0 -0 0 0 0 0 0 0 0 -0 0 0 0 0 0 -0 -0 0
-0 0 0 -0 -0 -0 0 0 0 0 -0 -0 -0 -0 -0 -0 -0 -0 -0 -0 -0 -0 -0 -0 -0 -0 0 0 0 -0 -0 0 0 1 0 1 0 0 0 0 0 0 0 0 0 0 -0 0 0
-0 0 -0 -0 0 0 -0 -0 0 0 0 -0 0 -0 0 0 -0 -0 -0 -0 -0 -0 -0 -0 -0 -0 0 0 0 0 0 0 0 0 0 0 0 0 -0 -0 0 0 0 0 0 -0 0 0 -0
-0 -0 -0 0 0 0 0 0 0 0 0 0 -0 -1 -0 0 0 -0 -0 -0 -0 -0 -0 -0 -1 -0 -0 -0 0 0 0 0 0 0 0 0 -0 0 0 0 0 0 0 0 0 0 -0 0 -0
-0 -0 0 -0 0 0 0 0 0 0 0 0 -0 -1 -1 -0 0 -0 -0 -0 -0 -0 -0 -0 -1 -0 -0 -0 -0 0 -0 0 0 0 0 0 0 0 0 0 0 0 0 0 0 0 0 0 -0
-0 -0 -0 -0 -0 -0 0 0 0 0 0 0 -0 -0 -1 -0 -0 -0 -1 -1 -0 -1 -1 -0 -1 -0 -0 -0 -0 -0 -0 0 0 0 0 0 1 -0 0 0 -0 0 0 0 0 0 0 -0 0
-0 0 0 -0 0 0 0 -0 0 0 0 0 0 0 0 -0 -0 -0 -0 -1 -0 -0 -0 -0 -1 -1 -0 -0 -0 -0 -0 0 -0 0 0 0 0 -0 1 0 0 0 1 0 0 0 0 0 0
0 0 0 -0 0 0 0 0 0 0 0 0 0 0 0 -0 0 -0 -0 -0 -0 -0 -0 -0 -0 -1 -0 -0 -0 -0 -0 -0 0 -0 0 0 1 1 0 1 1 0 0 0 0 0 0 0 0
0 0 -0 0 0 0 0 0 0 0 0 -0 0 0 0 0 0 0 0 -0 -0 -0 -0 0 -0 -0 -0 -0 0 0 0 -0 -0 0 -0 0 0 0 1 1 1 1 1 0 1 0 0 0 0
Wind_Speed_500mb
3 14 16 22 6 7 9 15 24 18 19 26 28 22 35 33 12 19 47 36 39 41 38 38 32 27 23 22 19 25 23 26 26 22 21 19 18 15 17 18 16 17 19 20 19 17 15 17 15
2 17 14 12 8 9 9 24 28 28 24 16 19 27 43 25 36 39 38 39 42 40 36 39 33 25 22 19 18 19 18 21 19 16 15 15 12 11 16 20 18 18 20 19 16 17 17 17 16
5 9 10 3 8 9 11 17 23 20 8 15 11 23 19 8 26 21 43 45 47 43 35 41 38 33 23 17 16 15 17 18 16 17 18 15 13 17 15 15 15 17 18 18 17 17 17 17 16
14 16 17 15 11 7 37 7 18 24 27 11 9 22 28 23 15 37 39 51 54 49 38 41 36 34 26 20 20 18 15 15 17 20 21 19 17 19 16 15 15 14 16 17 16 16 16 16 16
21 28 14 5 3 8 30 11 23 17 2 25 14 26 20 22 25 32 39 35 41 43 37 42 40 30 28 23 16 16 15 14 15 17 18 16 21 18 17 15 13 15 13 15 15 15 15 12 7
12 11 1 7 1 7 28 6 15 14 7 12 2 35 17 23 31 30 34 32 37 32 39 39 31 37 27 19 15 12 13 17 19 18 22 15 19 25 22 17 13 13 13 16 16 16 13 8 7
18 9 15 18 12 18 16 13 18 9 32 17 7 15 21 30 32 29 30 37 30 25 28 27 34 38 30 33 27 24 16 15 16 17 24 18 20 25 19 17 12 12 15 16 17 14 11 8 5
8 8 6 9 1 15 32 45 11 27 4 6 12 13 24 32 32 36 26 29 24 21 20 26 23 23 24 30 28 28 20 17 20 20 31 30 25 28 20 15 12 13 14 14 11 11 11 7 4
16 5 9 14 26 16 15 16 1 7 3 19 16 33 38 41 35 32 31 32 33 28 26 17 26 26 25 27 27 26 27 20 23 25 30 32 26 21 12 12 10 11 10 7 7 6 3 1 9
20 5 14 29 23 11 4 33 7 12 23 22 13 37 38 40 34 34 36 31 27 30 27 26 22 24 28 27 28 26 26 28 26 39 34 29 25 22 17 10 14 10 6 11 13 6 4 15 7
12 9 11 17 19 23 18 20 7 2 10 8 7 41 36 27 25 32 31 33 31 31 26 24 29 26 23 18 26 21 26 31 35 42 26 35 29 28 26 6 8 6 12 5 9 12 7 9 29
8 14 13 10 16 21 14 4 14 16 15 10 22 46 40 31 30 29 25 23 31 27 22 21 22 26 26 22 26 28 31 34 37 33 32 27 24 30 25 15 6 4 5 7 13 31 10 12 14
13 11 7 9 13 12 14 14 5 14 22 21 21 42 36 35 30 28 32 28 27 29 27 23 23 24 24 24 27 36 41 26 24 24 30 23 38 19 12 19 8 16 15 8 4 18 15 13 19
12 9 11 2 4 6 13 15 17 22 23 25 21 27 29 35 27 39 36 25 22 26 27 27 21 22 23 23 34 45 39 32 25 24 20 7 10 13 19 18 10 22 17 8 8 13 16 15 18
21 15 21 14 13 7 5 9 4 35 23 17 26 28 25 26 22 20 18 23 18 31 28 28 25 27 31 43 46 39 33 28 28 24 21 15 19 22 15 9 10 15 5 8 11 17 14 21 16
28 33 11 19 20 19 15 4 23 16 54 35 32 26 28 22 23 16 15 24 26 30 26 30 27 34 42 43 37 33 33 24 37 22 20 16 8 23 22 15 9 13 4 4 13 11 13 24 20
17 19 21 19 33 27 22 2 34 60 79 20 24 35 28 25 23 20 19 23 28 33 31 33 34 33 41 44 40 24 21 25 19 23 22 14 14 26 19 14 13 11 4 13 6 26 19 12 28
29 21 20 6 23 12 20 13 11 24 11 25 29 40 35 32 31 25 21 25 30 34 35 37 34 36 43 46 37 20 25 41 29 28 32 14 14 17 17 10 13 14 6 14 7 21 17 30 10
17 23 26 10 10 8 19 27 18 35 29 39 48 37 40 46 42 33 30 30 34 35 40 44 42 36 42 46 38 22 36 29 9 19 27 16 16 15 23 15 16 22 5 14 6 4 10 15 16
25 33 15 7 8 12 30 8 11 30 36 42 39 38 46 47 41 39 38 34 37 39 39 49 32 33 43 40 29 26 21 28 13 19 16 13 18 19 24 14 20 6 14 7 10 8 8 13 10
33 19 15 21 4 16 11 23 38 44 37 41 48 36 41 51 45 49 42 42 39 39 31 44 47 38 43 34 30 34 37 25 29 21 22 16 17 14 22 17 19 11 9 13 6 7 10 20 19
31 13 21 31 21 12 23 11 20 22 39 32 41 43 51 63 55 54 48 49 49 46 41 39 37 39 47 31 32 35 35 28 26 27 18 18 20 16 21 16 22 14 9 5 9 10 11 12 20
19 29 26 37 31 23 30 13 1 26 32 32 44 55 62 67 57 63 53 50 53 48 46 44 38 41 45 45 35 30 30 27 25 25 14 33 15 20 17 18 17 14 11 5 20 20 14 12 10
14 28 39 41 34 11 37 27 11 21 26 30 48 51 52 49 61 58 53 51 52 50 47 47 44 43 45 46 40 38 30 26 20 24 33 23 26 16 22 22 17 16 10 11 14 16 12 12 16
20 28 26 20 5 19 37 24 21 55 40 42 47 59 61 45 35 65 59 61 55 57 51 52 48 48 47 52 52 46 39 22 33 16 24 29 28 28 32 24 28 13 14 14 15 9 12 18 14
32 28 26 39 32 12 30 12 16 24 30 26 52 57 59 50 43 63 70 72 64 65 58 54 50 45 49 50 50 53 43 36 33 29 29 26 37 32 32 31 32 16 20 13 10 8 17 13 29
34 29 32 34 31 28 14 15 16 15 27 25 38 49 61 60 56 53 66 73 66 68 62 59 57 46 45 53 50 48 47 44 32 38 31 33 25 33 31 24 30 23 14 17 23 19 15 19 22
25 25 28 22 21 28 23 22 5 26 24 9 19 25 28 61 64 61 70 70 64 63 63 59 59 53 43 47 47 46 48 45 42 37 38 31 38 48 30 15 23 35 25 26 32 28 23 23 21
19 24 20 31 21 21 23 6 21 34 39 17 20 25 22 16 41 55 68 68 68 56 62 60 58 55 46 49 53 45 44 44 43 48 40 48 33 35 40 34 35 24 21 22 27 20 30 35 23
29 29 32 19 22 21 20 22 23 24 15 17 23 27 29 21 22 47 51 65 70 61 60 61 65 61 57 50 55 53 47 41 40 44 51 44 51 52 51 45 43 43 34 30 32 30 22 27 29
Wind_Direction_500mb
309 34 13 303 265 308 255 107 91 60 54 60 50 62 79 62 65 113 145 158 147 146 146 144 144 141 136 143 138 144 134 131 129 122 112 111 112 131 139 136 135 135 136 139 148 152 161 166 160
217 267 282 270 44 337 309 103 76 62 77 115 82 57 83 72 93 126 128 155 143 141 144 146 140 137 135 141 141 137 142 139 126 118 110 110 124 122 119 122 122 125 139 145 149 153 157 162 159
57 291 253 184 117 249 275 78 84 93 65 18 94 97 74 49 76 107 142 141 145 138 146 142 144 137 132 127 127 133 139 140 132 123 126 127 130 125 124 114 138 142 143 145 148 153 165 166 150
305 246 242 258 136 247 270 261 85 67 29 65 23 85 85 76 93 128 140 145 139 143 165 150 153 157 136 146 153 148 155 149 146 143 144 140 133 132 126 129 138 144 159 148 156 163 170 159 139
271 271 272 40 169 220 277 87 117 74 166 37 37 105 91 78 105 152 148 146 143 163 165 149 143 145 158 159 159 158 160 152 161 160 157 148 147 163 142 159 165 176 158 146 153 162 172 169 164
251 291 316 304 215 305 280 84 93 79 132 94 157 96 86 116 129 139 144 155 145 148 165 179 188 189 170 160 172 172 196 181 192 192 184 170 159 167 170 190 193 181 163 154 160 179 195 186 186
330 323 344 301 81 257 311 90 20 166 75 57 34 110 118 129 137 146 144 147 151 170 179 176 188 201 205 196 209 211 217 197 226 218 183 175 181 180 178 191 206 186 170 164 178 198 212 200 218
284 10 257 335 19 11 307 349 348 84 65 87 24 153 153 149 141 145 162 165 162 154 148 179 189 188 190 200 208 211 208 237 201 173 176 175 183 182 192 206 200 197 186 176 190 218 224 215 272
294 12 347 319 301 154 199 255 163 339 40 69 44 95 136 145 144 151 146 141 146 149 166 175 166 175 182 194 198 200 216 215 196 177 165 166 167 186 191 189 232 233 205 170 171 216 226 328 305
268 60 207 224 297 94 162 314 354 290 59 54 321 102 126 142 150 157 158 169 155 159 167 187 184 192 188 203 206 186 204 184 171 158 147 133 152 164 198 242 239 228 165 117 111 85 281 268 284
18 315 349 314 334 304 145 242 305 252 69 94 218 125 135 149 158 177 176 185 169 177 197 194 179 201 182 183 183 190 167 158 163 145 150 157 174 199 185 208 205 152 110 90 87 322 285 329 309
335 246 342 334 287 285 263 228 242 63 173 143 253 141 143 165 171 183 184 204 181 167 183 197 194 205 186 187 173 165 171 146 143 146 151 163 180 213 182 260 222 286 349 348 219 212 268 17 303
273 4 351 296 278 255 274 256 189 136 189 155 138 151 158 167 171 172 171 146 149 168 182 200 200 196 189 182 178 174 154 143 152 165 174 185 188 179 158 193 191 202 207 193 275 330 0 333 332
325 260 292 180 196 233 247 215 243 339 292 134 158 152 162 169 172 163 156 164 167 176 180 179 190 186 176 170 163 155 162 157 163 161 149 142 142 145 217 218 215 241 208 189 148 326 352 343 324
286 251 243 183 195 186 175 215 218 148 256 180 179 162 172 170 162 162 179 179 166 183 195 196 178 175 161 151 150 157 162 167 173 178 175 176 151 181 188 181 197 259 253 41 35 359 308 321 341
257 313 207 165 192 168 192 220 130 195 187 215 165 155 178 176 183 175 159 163 156 159 177 177 173 165 159 156 157 159 173 197 156 148 167 180 150 177 162 204 195 252 206 40 334 268 341 360 3
275 245 236 166 185 149 206 245 186 200 226 131 207 173 158 187 176 171 155 157 156 172 174 158 157 158 174 165 151 159 201 182 199 176 179 177 190 168 159 185 228 249 38 338 301 337 318 302 294
288 327 308 307 169 203 240 217 186 205 114 193 238 173 175 182 191 172 168 155 159 151 163 155 161 176 168 171 158 141 182 176 166 179 190 178 187 188 170 181 233 219 112 289 11 8 351 322 5
295 282 278 105 126 238 264 172 184 198 196 198 227 185 168 186 181 179 168 156 160 163 170 164 188 185 173 174 171 149 194 190 101 169 154 185 196 231 181 178 259 204 215 254 226 202 274 314 318
277 272 0 38 164 175 3 44 212 201 215 218 214 202 183 193 178 180 169 163 167 166 179 167 186 188 179 174 162 165 169 169 210 183 196 204 203 239 191 203 239 241 282 316 289 301 291 313 1
266 293 352 301 97 82 337 360 330 324 206 210 226 232 195 188 187 178 173 169 172 177 181 176 194 187 180 164 169 169 174 198 179 190 192 224 218 235 181 239 247 171 208 281 45 14 329 333 359
283 33 305 293 286 303 162 179 271 347 320 207 229 222 235 185 192 172 176 175 176 179 181 201 193 184 168 178 198 187 178 164 181 189 215 221 229 236 200 244 250 274 189 18 10 339 291 302 331
302 313 305 295 287 258 184 128 29 47 287 249 205 224 228 184 189 178 178 179 180 180 185 197 193 185 182 186 196 204 188 169 181 193 212 192 232 222 219 237 258 281 246 324 286 268 267 266 331
322 285 283 268 257 70 292 281 186 199 177 244 253 205 228 218 191 173 173 177 182 182 185 198 201 197 188 188 191 193 212 221 188 216 213 197 207 254 220 219 241 257 250 241 271 299 303 294 263
239 259 275 281 102 254 233 254 164 209 190 202 213 193 208 217 179 171 177 176 186 184 186 195 211 210 203 198 199 203 201 209 199 195 204 203 224 219 231 213 228 250 256 245 251 273 274 276 306
263 269 291 306 318 310 237 345 143 174 143 158 178 183 185 199 216 175 175 179 184 187 187 193 211 216 208 211 210 213 213 211 213 211 204 225 240 231 232 233 230 234 232 262 251 264 295 293 268
250 251 271 289 301 298 14 3 337 125 126 151 162 165 173 183 194 197 184 184 182 184 187 193 208 218 214 211 216 222 227 226 217 218 224 226 232 220 230 267 235 231 217 256 250 250 246 258 277
260 295 293 274 297 289 323 300 57 60 36 221 129 140 161 180 188 196 180 177 183 183 189 194 209 218 222 211 217 221 225 225 211 213 224 233 237 230 231 230 229 242 241 246 252 251 250 246 245
243 234 230 271 287 294 293 115 238 163 205 171 161 143 143 176 181 187 180 182 186 189 188 193 202 211 216 210 218 219 231 230 222 217 222 222 222 233 247 244 225 238 258 246 254 253 235 252 264
219 258 274 232 242 246 274 300 99 7 34 335 158 143 141 163 186 179 181 176 186 188 187 191 198 205 218 214 212 220 223 228 234 226 219 232 232 229 236 248 256 255 242 245 250 262 262 257 267
Wind_Speed_850mb
3 14 16 22 6 7 9 15 24 18 19 26 28 22 35 33 12 19 47 36 39 41 38 38 32 27 23 22 19 25 23 26 26 22 21 19 18 15 17 18 16 17 19 20 19 17 15 17 15
2 17 14 12 8 9 9 24 28 28 24 16 19 27 43 25 36 39 38 39 42 40 36 39 33 25 22 19 18 19 18 21 19 16 15 15 12 11 16 20 18 18 20 19 16 17 17 17 16
5 9 10 3 8 9 11 17 23 20 8 15 11 23 19 8 26 21 43 45 47 43 35 41 38 33 23 17 16 15 17 18 16 17 18 15 13 17 15 15 15 17 18 18 17 17 17 17 16
14 16 17 15 11 7 37 7 18 24 27 11 9 22 28 23 15 37 39 51 54 49 38 41 36 34 26 20 20 18 15 15 17 20 21 19 17 19 16 15 15 14 16 17 16 16 16 16 16
21 28 14 5 3 8 30 11 23 17 2 25 14 26 20 22 25 32 39 35 41 43 37 42 40 30 28 23 16 16 15 14 15 17 18 16 21 18 17 15 13 15 13 15 15 15 15 12 7
12 11 1 7 1 7 28 6 15 14 7 12 2 35 17 23 31 30 34 32 37 32 39 39 31 37 27 19 15 12 13 17 19 18 22 15 19 25 22 17 13 13 13 16 16 16 13 8 7
18 9 15 18 12 18 16 13 18 9 32 17 7 15 21 30 32 29 30 37 30 25 28 27 34 38 30 33 27 24 16 15 16 17 24 18 20 25 19 17 12 12 15 16 17 14 11 8 5
8 8 6 9 1 15 32 45 11 27 4 6 12 13 24 32 32 36 26 29 24 21 20 26 23 23 24 30 28 28 20 17 20 20 31 30 25 28 20 15 12 13 14 14 11 11 11 7 4
16 5 9 14 26 16 15 16 1 7 3 19 16 33 38 41 35 32 31 32 33 28 26 17 26 26 25 27 27 26 27 20 23 25 30 32 26 21 12 12 10 11 10 7 7 6 3 1 9
20 5 14 29 23 11 4 33 7 12 23 22 13 37 38 40 34 34 36 31 27 30 27 26 22 24 28 27 28 26 26 28 26 39 34 29 25 22 17 10 14 10 6 11 13 6 4 15 7
12 9 11 17 19 23 18 20 7 2 10 8 7 41 36 27 25 32 31 33 31 31 26 24 29 26 23 18 26 21 26 31 35 42 26 35 29 28 26 6 8 6 12 5 9 12 7 9 29
8 14 13 10 16 21 14 4 14 16 15 10 22 46 40 31 30 29 25 23 31 27 22 21 22 26 26 22 26 28 31 34 37 33 32 27 24 30 25 15 6 4 5 7 13 31 10 12 14
13 11 7 9 13 12 14 14 5 14 22 21 21 42 36 35 30 28 32 28 27 29 27 23 23 24 24 24 27 36 41 26 24 24 30 23 38 19 12 19 8 16 15 8 4 18 15 13 19
12 9 11 2 4 6 13 15 17 22 23 25 21 27 29 35 27 39 36 25 22 26 27 27 21 22 23 23 34 45 39 32 25 24 20 7 10 13 19 18 10 22 17 8 8 13 16 15 18
21 15 21 14 13 7 5 9 4 35 23 17 26 28 25 26 22 20 18 23 18 31 28 28 25 27 31 43 46 39 33 28 28 24 21 15 19 22 15 9 10 15 5 8 11 17 14 21 16
28 33 11 19 20 19 15 4 23 16 54 35 32 26 28 22 23 16 15 24 26 30 26 30 27 34 42 43 37 33 33 24 37 22 20 16 8 23 22 15 9 13 4 4 13 11 13 24 20
17 19 21 19 33 27 22 2 34 60 79 20 24 35 28 25 23 20 19 23 28 33 31 33 34 33 41 44 40 24 21 25 19 23 22 14 14 26 19 14 13 11 4 13 6 26 19 12 28
29 21 20 6 23 12 20 13 11 24 11 25 29 40 35 32 31 25 21 25 30 34 35 37 34 36 43 46 37 20 25 41 29 28 32 14 14 17 17 10 13 14 6 14 7 21 17 30 10
17 23 26 10 10 8 19 27 18 35 29 39 48 37 40 46 42 33 30 30 34 35 40 44 42 36 42 46 38 22 36 29 9 19 27 16 16 15 23 15 16 22 5 14 6 4 10 15 16
25 33 15 7 8 12 30 8 11 30 36 42 39 38 46 47 41 39 38 34 37 39 39 49 32 33 43 40 29 26 21 28 13 19 16 13 18 19 24 14 20 6 14 7 10 8 8 13 10
33 19 15 21 4 16 11 23 38 44 37 41 48 36 41 51 45 49 42 42 39 39 31 44 47 38 43 34 30 34 37 25 29 21 22 16 17 14 22 17 19 11 9 13 6 7 10 20 19
31 13 21 31 21 12 23 11 20 22 39 32 41 43 51 63 55 54 48 49 49 46 41 39 37 39 47 31 32 35 35 28 26 27 18 18 20 16 21 16 22 14 9 5 9 10 11 12 20
19 29 26 37 31 23 30 13 1 26 32 32 44 55 62 67 57 63 53 50 53 48 46 44 38 41 45 45 35 30 30 27 25 25 14 33 15 20 17 18 17 14 11 5 20 20 14 12 10
14 28 39 41 34 11 37 27 11 21 26 30 48 51 52 49 61 58 53 51 52 50 47 47 44 43 45 46 40 38 30 26 20 24 33 23 26 16 22 22 17 16 10 11 14 16 12 12 16
20 28 26 20 5 19 37 24 21 55 40 42 47 59 61 45 35 65 59 61 55 57 51 52 48 48 47 52 52 46 39 22 33 16 24 29 28 28 32 24 28 13 14 14 15 9 12 18 14
32 28 26 39 32 12 30 12 16 24 30 26 52 57 59 50 43 63 70 72 64 65 58 54 50 45 49 50 50 53 43 36 33 29 29 26 37 32 32 31 32 16 20 13 10 8 17 13 29
34 29 32 34 31 28 14 15 16 15 27 25 38 49 61 60 56 53 66 73 66 68 62 59 57 46 45 53 50 48 47 44 32 38 31 33 25 33 31 24 30 23 14 17 23 19 15 19 22
25 25 28 22 21 28 23 22 5 26 24 9 19 25 28 61 64 61 70 70 64 63 63 59 59 53 43 47 47 46 48 45 42 37 38 31 38 48 30 15 23 35 25 26 32 28 23 23 21
19 24 20 31 21 21 23 6 21 34 39 17 20 25 22 16 41 55 68 68 68 56 62 60 58 55 46 49 53 45 44 44 43 48 40 48 33 35 40 34 35 24 21 22 27 20 30 35 23
29 29 32 19 22 21 20 22 23 24 15 17 23 27 29 21 22 47 51 65 70 61 60 61 65 61 57 50 55 53 47 41 40 44 51 44 51 52 51 45 43 43 34 30 32 30 22 27 29
Wind_Direction_850mb
309 34 13 303 265 308 255 107 91 60 54 60 50 62 79 62 65 113 145 158 147 146 146 144 144 141 136 143 138 144 134 131 129 122 112 111 112 131 139 136 135 135 136 139 148 152 161 166 160
217 267 282 270 44 337 309 103 76 62 77 115 82 57 83 72 93 126 128 155 143 141 144 146 140 137 135 141 141 137 142 139 126 118 110 110 124 122 119 122 122 125 139 145 149 153 157 162 159
57 291 253 184 117 249 275 78 84 93 65 18 94 97 74 49 76 107 142 141 145 138 146 142 144 137 132 127 127 133 139 140 132 123 126 127 130 125 124 114 138 142 143 145 148 153 165 166 150
305 246 242 258 136 247 270 261 85 67 29 65 23 85 85 76 93 128 140 145 139 143 165 150 153 157 136 146 153 148 155 149 146 143 144 140 133 132 126 129 138 144 159 148 156 163 170 159 139
271 271 272 40 169 220 277 87 117 74 166 37 37 105 91 78 105 152 148 146 143 163 165 149 143 145 158 159 159 158 160 152 161 160 157 148 147 163 142 159 165 176 158 146 153 162 172 169 164
251 291 316 304 215 305 280 84 93 79 132 94 157 96 86 116 129 139 144 155 145 148 165 179 188 189 170 160 172 172 196 181 192 192 184 170 159 167 170 190 193 181 163 154 160 179 195 186 186
330 323 344 301 81 257 311 90 20 166 75 57 34 110 118 129 137 146 144 147 151 170 179 176 188 201 205 196 209 211 217 197 226 218 183 175 181 180 178 191 206 186 170 164 178 198 212 200 218
284 10 257 335 19 11 307 349 348 84 65 87 24 153 153 149 141 145 162 165 162 154 148 179 189 188 190 200 208 211 208 237 201 173 176 175 183 182 192 206 200 197 186 176 190 218 224 215 272
294 12 347 319 301 154 199 255 163 339 40 69 44 95 136 145 144 151 146 141 146 149 166 175 166 175 182 194 198 200 216 215 196 177 165 166 167 186 191 189 232 233 205 170 171 216 226 328 305
268 60 207 224 297 94 162 314 354 290 59 54 321 102 126 142 150 157 158 169 155 159 167 187 184 192 188 203 206 186 204 184 171 158 147 133 152 164 198 242 239 228 165 117 111 85 281 268 284
18 315 349 314 334 304 145 242 305 252 69 94 218 125 135 149 158 177 176 185 169 177 197 194 179 201 182 183 183 190 167 158 163 145 150 157 174 199 185 208 205 152 110 90 87 322 285 329 309
335 246 342 334 287 285 263 228 242 63 173 143 253 141 143 165 171 183 184 204 181 167 183 197 194 205 186 187 173 165 171 146 143 146 151 163 180 213 182 260 222 286 349 348 219 212 268 17 303
273 4 351 296 278 255 274 256 189 136 189 155 138 151 158 167 171 172 171 146 149 168 182 200 200 196 189 182 178 174 154 143 152 165 174 185 188 179 158 193 191 202 207 193 275 330 0 333 332
325 260 292 180 196 233 247 215 243 339 292 134 158 152 162 169 172 163 156 164 167 176 180 179 190 186 176 170 163 155 162 157 163 161 149 142 142 145 217 218 215 241 208 189 148 326 352 343 324
286 251 243 183 195 186 175 215 218 148 256 180 179 162 172 170 162 162 179 179 166 183 195 196 178 175 161 151 150 157 162 167 173 178 175 176 151 181 188 181 197 259 253 41 35 359 308 321 341
257 313 207 165 192 168 192 220 130 195 187 215 165 155 178 176 183 175 159 163 156 159 177 177 173 165 159 156 157 159 173 197 156 148 167 180 150 177 162 204 195 252 206 40 334 268 341 360 3
275 245 236 166 185 149 206 245 186 200 226 131 207 173 158 187 176 171 155 157 156 172 174 158 157 158 174 165 151 159 201 182 199 176 179 177 190 168 159 185 228 249 38 338 301 337 318 302 294
288 327 308 307 169 203 240 217 186 205 114 193 238 173 175 182 191 172 168 155 159 151 163 155 161 176 168 171 158 141 182 176 166 179 190 178 187 188 170 181 233 219 112 289 11 8 351 322 5
295 282 278 105 126 238 264 172 184 198 196 198 227 185 168 186 181 179 168 156 160 163 170 164 188 185 173 174 171 149 194 190 101 169 154 185 196 231 181 178 259 204 215 254 226 202 274 314 318
277 272 0 38 164 175 3 44 212 201 215 218 214 202 183 193 178 180 169 163 167 166 179 167 186 188 179 174 162 165 169 169 210 183 196 204 203 239 191 203 239 241 282 316 289 301 291 313 1
266 293 352 301 97 82 337 360 330 324 206 210 226 232 195 188 187 178 173 169 172 177 181 176 194 187 180 164 169 169 174 198 179 190 192 224 218 235 181 239 247 171 208 281 45 14 329 333 359
283 33 305 293 286 303 162 179 271 347 320 207 229 222 235 185 192 172 176 175 176 179 181 201 193 184 168 178 198 187 178 164 181 189 215 221 229 236 200 244 250 274 189 18 10 339 291 302 331
302 313 305 295 287 258 184 128 29 47 287 249 205 224 228 184 189 178 178 179 180 180 185 197 193 185 182 186 196 204 188 169 181 193 212 192 232 222 219 237 258 281 246 324 286 268 267 266 331
322 285 283 268 257 70 292 281 186 199 177 244 253 205 228 218 191 173 173 177 182 182 185 198 201 197 188 188 191 193 212 221 188 216 213 197 207 254 220 219 241 257 250 241 271 299 303 294 263
239 259 275 281 102 254 233 254 164 209 190 202 213 193 208 217 179 171 177 176 186 184 186 195 211 210 203 198 199 203 201 209 199 195 204 203 224 219 231 213 228 250 256 245 251 273 274 276 306
263 269 291 306 318 310 237 345 143 174 143 158 178 183 185 199 216 175 175 179 184 187 187 193 211 216 208 211 210 213 213 211 213 211 204 225 240 231 232 233 230 234 232 262 251 264 295 293 268
250 251 271 289 301 298 14 3 337 125 126 151 162 165 173 183 194 197 184 184 182 184 187 193 208 218 214 211 216 222 227 226 217 218 224 226 232 220 230 267 235 231 217 256 250 250 246 258 277
260 295 293 274 297 289 323 300 57 60 36 221 129 140 161 180 188 196 180 177 183 183 189 194 209 218 222 211 217 221 225 225 211 213 224 233 237 230 231 230 229 242 241 246 252 251 250 246 245
243 234 230 271 287 294 293 115 238 163 205 171 161 143 143 176 181 187 180 182 186 189 188 193 202 211 216 210 218 219 231 230 222 217 222 222 222 233 247 244 225 238 258 246 254 253 235 252 264
219 258 274 232 242 246 274 300 99 7 34 335 158 143 141 163 186 179 181 176 186 188 187 191 198 205 218 214 212 220 223 228 234 226 219 232 232 229 236 248 256 255 242 245 250 262 262 257 267